ESMSESMQ

Guest
Details From ESMS - Malmo Sturup
To ESMQ - Kalmar
Flight Number -
Tags generated
Created
Modified
Stats Distance 120 nm / 222 km
Max Altitude 9,500 ft / 2,896 m
Waypoints 4
Social Downloads 1
Likes 0
Share VATSIM

Download

Looking for another format? Having issues loading an existing format? Contact us
Advertisement - Login to hide

Notes

Basic altitude profile: - Ascent Rate: 2500ft/min - Ascent Speed: 250kts - Cruise Altitude: 35000ft - Cruise Speed: 420kts - Descent Rate: 1500ft/min - Descent Speed: 250kts Options: - Use NATs: yes - Use PACOTS: yes - Use low airways: yes - Use high airways: yes

Route

ESMS LAGIS L990 KAL ESMQ

ID Type Via Altitude Latitude Longitude Leg Dist Tot Dist Heading (true) Name
O ESMS APT - 0 ft / 0 m 55.52888˚ 13.37111˚ - 0 nm - Malmo Sturup
LAGIS FIX - 2,900 ft / 884 m 56.55494˚ 15.93700˚ 105 nm 105 nm 53° / 55° -
KAL VOR L990 (AWY-LO) 9,500 ft / 2,896 m 56.68539˚ 16.28419˚ 13 nm 119 nm 56° / 56° KALMAR VOR-DME
O ESMQ APT - 0 ft / 0 m 56.68565˚ 16.28306˚ 0 nm 119 nm 292° / 292° Kalmar

Altitude Profile

Advertisement - Login to hide

ESMS

Details ICAO ESMS (MMX)
Name Malmo Sturup
Region Sweden
Timezone Europe/Stockholm (UTC+1.0)
Stats Elevation 236 ft / 72 m (AMSL)
Location 55.528883° 13.371109°
Runways 2
Magnetic Variation 3.963° E

METAR

ESMS 121620Z 31012KT 9999 OVC030 01/M01 Q0998 R17/290295

Decode

TAF

TAF ESMS 121052Z 1212/1312 31012KT 4000 -SNRADZ BKN004 BECMG 1212/1214 9999 NSW BKN010 BECMG 1214/1216 SCT020 BECMG 1219/1222 22012KT TEMPO 1303/1312 22018G28KT BKN012

Decode

Departure Runways

ID Width Length Bearing (true) Bearing (mag) Surface Threshold Offset Overrun Length
11 59 ft / 18 m 2,609 ft / 795 m 105.31° 101.35° Asphalt 0 ft / 0 m 0 ft / 0 m
17 148 ft / 45 m 9,176 ft / 2,797 m 173.36° 169.40° Asphalt 0 ft / 0 m 98 ft / 30 m
29 59 ft / 18 m 2,609 ft / 795 m 285.32° 281.36° Asphalt 0 ft / 0 m 0 ft / 0 m
35 148 ft / 45 m 9,176 ft / 2,797 m 353.37° 349.41° Asphalt 0 ft / 0 m 98 ft / 30 m

ESMQ

Details ICAO ESMQ (KLR)
Name Kalmar
Region Sweden
Timezone Europe/Stockholm (UTC+1.0)
Stats Elevation 17 ft / 5 m (AMSL)
Location 56.685646° 16.283058°
Runways 2
Magnetic Variation 5.058° E

METAR

ESMQ 121620Z 30010KT CAVOK 01/00 Q0992

Decode

TAF

Not found

Destination Runways

ID Width Length Bearing (true) Bearing (mag) Surface Threshold Offset Overrun Length
05 131 ft / 40 m 2,174 ft / 663 m 48.03° 42.97° Asphalt 0 ft / 0 m 640 ft / 195 m
16 148 ft / 45 m 6,715 ft / 2,047 m 152.22° 147.16° Asphalt 0 ft / 0 m 0 ft / 0 m
23 131 ft / 40 m 2,174 ft / 663 m 228.03° 222.97° Asphalt 0 ft / 0 m 0 ft / 0 m
34 148 ft / 45 m 6,715 ft / 2,047 m 332.23° 327.17° Asphalt 0 ft / 0 m 873 ft / 266 m

Approach Navaids

Runway Type Ident Frequency Range Bearing (true) Bearing (mag) Slope Elevation
16 Localiser MQ 108.70 MHz 18 nm / 33 km 152.34° 147.29° - 17 ft / 5 m (AMSL)
16 Glidescope MQ 108.70 MHz 10 nm / 19 km 152.23° 147.17° 3.00° 17 ft / 5 m (AMSL)

Popular Alternatives